Telluride, CO

9:21 AM MST on December 06, 2016 (GMT -0700)
Telluride Regional

Weather History for KTEX - February, 2013

Change the Weather History Date:

Thursday, February 7, 2013

  Actual Average Record
Temperature  
Mean Temperature 26 °F -  
Max Temperature 37 °F 30 °F 51 °F (2015)
Min Temperature 14 °F 10 °F -9 °F (2003)
Degree Days  
Heating Degree Days 40    
Moisture  
Dew Point 9 °F    
Average Humidity 52    
Maximum Humidity 93    
Minimum Humidity 17    
Precipitation  
Precipitation 0.01 in - - ()
Sea Level Pressure  
Sea Level Pressure 30.11 in    
Wind  
Wind Speed 4 mph (SE)    
Max Wind Speed 21 mph    
Max Gust Speed 30 mph    
Visibility 10 miles    
Events      
Averages and records for this station are not official NWS values.
T = Trace of Precipitation, MM = Missing Value Source: NWS Daily Summary

Daily Weather History Graph

Daily Weather History Graph

Search for Another Location

Airport or City:

Trip Planner

Search our weather history database for the weather conditions in past years. The results will help you decide how hot, cold, wet, or windy it might be!

Date:

Astronomy

Feb. 07, 2013 Rise Set
Actual Time 7:10 AM MST 5:42 PM MST
Civil Twilight 6:42 AM MST 6:09 PM MST
Nautical Twilight 6:11 AM MST 6:40 PM MST
Astronomical Twilight 5:40 AM MST 7:11 PM MST
Moon 4:50 AM MST (2/7) 3:11 PM MST (2/7)
Length of Visible Light 11h 26m
Length of Day
10h 32m
Waning Crescent, 8% of the Moon is Illuminated
Feb 7
Waning Crescent
Feb 10
New
Feb 17
First Quarter
Feb 25
Full
Mar 4
Last Quarter

Hourly Weather History & Observations

Time (MST) Temp. Windchill Dew Point Humidity Pressure Visibility Wind Dir Wind Speed Gust Speed Precip Events Conditions
12:15 AM 26.6 °F - 23.0 °F 86% 30.08 in 10.0 mi Calm Calm - N/A   Scattered Clouds
12:35 AM 26.6 °F - 23.0 °F 86% 30.08 in 10.0 mi Calm Calm - N/A   Clear
12:55 AM 26.6 °F - 24.8 °F 93% 30.08 in 10.0 mi Calm Calm - N/A   Clear
1:15 AM 26.6 °F 20.0 °F 21.2 °F 80% 30.09 in 10.0 mi West 5.8 mph - N/A   Clear
1:35 AM 23.0 °F - 19.4 °F 86% 30.09 in 10.0 mi Calm Calm - N/A   Clear
1:55 AM 23.0 °F - 21.2 °F 93% 30.10 in 10.0 mi Calm Calm - N/A   Clear
2:15 AM 23.0 °F - 19.4 °F 86% 30.10 in 10.0 mi Calm Calm - N/A   Clear
2:35 AM 23.0 °F - 17.6 °F 80% 30.10 in 10.0 mi Calm Calm - N/A   Scattered Clouds
2:55 AM 21.2 °F - 17.6 °F 86% 30.10 in 10.0 mi Calm Calm - N/A   Clear
3:15 AM 21.2 °F 16.4 °F 19.4 °F 93% 30.09 in 10.0 mi SE 3.5 mph - N/A   Clear
3:35 AM 19.4 °F 14.3 °F 15.8 °F 86% 30.09 in 10.0 mi ESE 3.5 mph - N/A   Clear
3:55 AM 19.4 °F 11.5 °F 17.6 °F 93% 30.09 in 10.0 mi ESE 5.8 mph - N/A   Clear
4:15 AM 21.2 °F 14.9 °F 19.4 °F 93% 30.09 in 10.0 mi SE 4.6 mph - N/A   Clear
4:35 AM 19.4 °F - 15.8 °F 86% 30.10 in 10.0 mi Calm Calm - N/A   Clear
4:55 AM 19.4 °F 10.4 °F 14.0 °F 80% 30.10 in 10.0 mi East 6.9 mph - N/A   Clear
5:15 AM 17.6 °F 8.2 °F 14.0 °F 86% 30.10 in 10.0 mi ESE 6.9 mph - N/A   Clear
5:35 AM 17.6 °F 8.2 °F 14.0 °F 86% 30.10 in 10.0 mi SE 6.9 mph - N/A   Clear
5:55 AM 17.6 °F 9.3 °F 14.0 °F 86% 30.11 in 10.0 mi ESE 5.8 mph - N/A   Clear
6:15 AM 17.6 °F 10.7 °F 12.2 °F 79% 30.12 in 10.0 mi ESE 4.6 mph - N/A   Clear
6:35 AM 15.8 °F 5.1 °F 12.2 °F 86% 30.12 in 10.0 mi ESE 8.1 mph - N/A   Clear
6:55 AM 15.8 °F 6.1 °F 10.4 °F 79% 30.12 in 10.0 mi ESE 6.9 mph - N/A   Clear
7:15 AM 14.0 °F 2.9 °F 10.4 °F 86% 30.12 in 10.0 mi SE 8.1 mph - N/A   Clear
7:35 AM 14.0 °F 3.9 °F 10.4 °F 86% 30.13 in 10.0 mi East 6.9 mph - N/A   Clear
7:55 AM 15.8 °F 7.2 °F 10.4 °F 79% 30.14 in 10.0 mi ESE 5.8 mph - N/A   Clear
8:15 AM 17.6 °F 7.3 °F 10.4 °F 73% 30.14 in 10.0 mi SSE 8.1 mph - N/A   Clear
8:35 AM 17.6 °F 8.2 °F 10.4 °F 73% 30.16 in 10.0 mi SE 6.9 mph - N/A   Clear
8:55 AM 19.4 °F 9.5 °F 10.4 °F 68% 30.16 in 10.0 mi ESE 8.1 mph - N/A   Clear
9:15 AM 19.4 °F 12.8 °F 10.4 °F 68% 30.16 in 10.0 mi SE 4.6 mph - N/A   Clear
9:35 AM 23.0 °F 18.4 °F 10.4 °F 59% 30.16 in 10.0 mi East 3.5 mph - N/A   Clear
9:55 AM 23.0 °F - 8.6 °F 54% 30.16 in 10.0 mi Calm Calm - N/A   Clear
10:15 AM 24.8 °F - 10.4 °F 54% 30.16 in 10.0 mi Calm Calm - N/A   Clear
10:35 AM 24.8 °F 20.5 °F 10.4 °F 54% 30.16 in 10.0 mi East 3.5 mph - 0.01 in   Clear
10:55 AM 28.4 °F - 10.4 °F 47% 30.16 in 10.0 mi Calm Calm - 0.01 in   Clear
11:15 AM 30.2 °F - 10.4 °F 44% 30.16 in 10.0 mi Calm Calm - N/A   Clear
11:35 AM 32.0 °F - 10.4 °F 41% 30.16 in 10.0 mi Calm Calm - N/A   Clear
11:55 AM 32.0 °F - 10.4 °F 41% 30.15 in 10.0 mi Calm Calm - N/A   Clear
12:15 PM 33.8 °F - 6.8 °F 32% 30.14 in 10.0 mi Calm Calm - N/A   Clear
12:35 PM 37.4 °F - -4.0 °F 17% 30.14 in 10.0 mi Calm Calm - N/A   Clear
12:55 PM 37.4 °F 31.4 °F -4.0 °F 17% 30.12 in 10.0 mi WSW 8.1 mph - N/A   Clear
1:15 PM 35.6 °F 28.6 °F -0.4 °F 22% 30.12 in 10.0 mi West 9.2 mph - N/A   Clear
1:35 PM 35.6 °F 27.5 °F 3.2 °F 26% 30.11 in 10.0 mi WSW 11.5 mph - N/A   Clear
1:55 PM 35.6 °F 28.0 °F 5.0 °F 28% 30.10 in 10.0 mi West 10.4 mph - N/A   Clear
2:15 PM 35.6 °F 27.5 °F 3.2 °F 26% 30.10 in 10.0 mi West 11.5 mph - N/A   Clear
2:35 PM 35.6 °F 28.0 °F 3.2 °F 26% 30.10 in 10.0 mi West 10.4 mph - N/A   Clear
2:55 PM 37.4 °F 30.8 °F 1.4 °F 22% 30.10 in 10.0 mi WSW 9.2 mph - N/A   Clear
3:15 PM 37.4 °F 30.8 °F -0.4 °F 20% 30.10 in 10.0 mi West 9.2 mph - N/A   Clear
3:35 PM 37.4 °F 30.8 °F -0.4 °F 20% 30.10 in 10.0 mi West 9.2 mph - N/A   Clear
3:55 PM 35.6 °F 28.6 °F 3.2 °F 26% 30.09 in 10.0 mi WSW 9.2 mph - N/A   Clear
4:35 PM 35.6 °F 29.9 °F 5.0 °F 28% 30.10 in 10.0 mi West 6.9 mph - N/A   Clear
4:55 PM 35.6 °F 31.7 °F 6.8 °F 30% 30.10 in 10.0 mi SW 4.6 mph - N/A   Clear
5:15 PM 33.8 °F 29.6 °F 5.0 °F 30% 30.10 in 10.0 mi WSW 4.6 mph - N/A   Clear
5:35 PM 33.8 °F - 6.8 °F 32% 30.10 in 10.0 mi Calm Calm - N/A   Clear
5:55 PM 32.0 °F - 6.8 °F 35% 30.10 in 10.0 mi Calm Calm - N/A   Clear
6:15 PM 32.0 °F - 5.0 °F 32% 30.10 in 10.0 mi Calm Calm - N/A   Clear
6:35 PM 32.0 °F - 3.2 °F 30% 30.10 in 10.0 mi Calm Calm - N/A   Clear
6:55 PM 32.0 °F 27.5 °F 1.4 °F 27% 30.10 in 10.0 mi East 4.6 mph - N/A   Clear
7:15 PM 32.0 °F 24.8 °F 3.2 °F 30% 30.10 in 10.0 mi East 8.1 mph - N/A   Clear
7:35 PM 32.0 °F 25.6 °F 5.0 °F 32% 30.10 in 10.0 mi ESE 6.9 mph - N/A   Clear
7:55 PM 32.0 °F 28.7 °F 1.4 °F 27% 30.10 in 10.0 mi East 3.5 mph - N/A   Clear
8:15 PM 32.0 °F - -0.4 °F 25% 30.10 in 10.0 mi Calm Calm - N/A   Clear
8:35 PM 32.0 °F 25.6 °F -0.4 °F 25% 30.10 in 10.0 mi East 6.9 mph - N/A   Clear
8:55 PM 30.2 °F 24.3 °F 1.4 °F 29% 30.10 in 10.0 mi East 5.8 mph - N/A   Clear
9:15 PM 32.0 °F 22.5 °F -5.8 °F 20% 30.09 in 10.0 mi SSE 12.7 mph 20.7 mph N/A   Clear
9:35 PM 32.0 °F 21.6 °F -0.4 °F 25% 30.09 in 10.0 mi South 15.0 mph 26.5 mph N/A   Clear
9:55 PM 32.0 °F 21.2 °F 5.0 °F 32% 30.09 in 10.0 mi South 16.1 mph 24.2 mph N/A   Clear
10:15 PM 32.0 °F 23.0 °F 5.0 °F 32% 30.09 in 10.0 mi SSE 11.5 mph 25.3 mph N/A   Clear
10:35 PM 32.0 °F 20.8 °F 5.0 °F 32% 30.07 in 10.0 mi South 17.3 mph 23.0 mph N/A   Clear
10:55 PM 32.0 °F 19.8 °F 5.0 °F 32% 30.08 in 10.0 mi ESE 20.7 mph 29.9 mph N/A   Clear
11:15 PM 32.0 °F 23.0 °F 5.0 °F 32% 30.07 in 10.0 mi SE 11.5 mph 25.3 mph N/A   Clear
11:35 PM 32.0 °F 21.6 °F 6.8 °F 35% 30.07 in 10.0 mi SE 15.0 mph 25.3 mph N/A   Clear
11:55 PM 32.0 °F 24.2 °F 6.8 °F 35% 30.07 in 10.0 mi SSE 9.2 mph - N/A   Clear